Other Public Products
Issued by NWS Grand Forks, ND

Home | Current Version | Previous Version | Graphics & Text | Print | Product List | Glossary On
Versions: 1 2 3 4 5 6 7 8 9 10 11 12 13 14 15 16 17 18 19 20 21 22 23 24 25 26 27 28 29 30 31 32 33 34 35 36 37 38 39 40 41 42 43 44 45 46 47 48 49 50
000
FPUS83 KFGF 251310
OPUFGF
NATIONAL WEATHER SERVICE EASTERN NORTH DAKOTA/GRAND FORKS ND
800 AM CDT MON MAY 25 2015

 **SATELLITE DATA USED TO AUGMENT SKY COVER AT AUTOMATED STATIONS**
 *****  WEATHER ACROSS EASTERN NORTH DAKOTA  *****

CITY           SKY/WX    TMP DP  RH WIND       PRES   REMARKS
GRAND FORKS    CLOUDY    58  53  84 W5        29.79S
GRAND FORKS AF CLOUDY    59  52  77 W3        29.80S
GRAND CITY NWS   N/A     57 N/A N/A W6          N/A
BUXTON         NOT AVBL
DEVILS LAKE    CLOUDY    59  48  67 CALM      29.83S
FARGO          LGT RAIN  59  55  87 NE12      29.77F
WAHPETON ARPT  CLOUDY    55  54  94 N12G20    29.74S
$$

 *****  WEATHER ACROSS CENTRAL AND WESTERN NORTH DAKOTA  *****

CITY           SKY/WX    TMP DP  RH WIND       PRES   REMARKS
JAMESTOWN      LGT RAIN  57  55  93 NE5       29.81F
BISMARCK       LGT RAIN  56  55  97 N6        29.85S
MINOT          CLOUDY    55  48  77 SW5       29.86S
MINOT AFB      CLOUDY    58  58  99 NW3       29.85S
GARRISON         N/A     57  53  86 N6        29.86R
WILLISTON      PTSUNNY   51  44  77 CALM      29.89S
DICKINSON      CLOUDY    55  50  83 N7        29.86S
HETTINGER      CLOUDY    53  51  93 NE12      29.86S FOG
$$

 *****  OTHER OBSERVATIONS NORTHEAST NORTH DAKOTA  *****

CITY           SKY/WX    TMP DP  RH WIND       PRES   REMARKS
WALHALLA         N/A     57  46  67 NW7       29.83R
LANGDON        FAIR      57  46  67 N8        29.84R
CAVALIER       FAIR      59  45  58 N10       29.81R
GRAFTON        FAIR      59  50  72 CALM      29.80S
CANDO          FAIR      57  48  72 N7        29.84S
FORT TOTTEN    NOT AVBL
ROLLA          FAIR      59  46  63 N13       29.86S
RUGBY          NOT AVBL
 ***** THE ABOVE OBSERVATIONS ARE NON NWS ARE NOT QUALITY
        CONTROLLED AND MAY MIS-REPORT RAIN FOR SNOW...
$$

 *****  OTHER OBSERVATIONS SOUTHEAST NORTH DAKOTA *****

CITY           SKY/WX    TMP DP  RH WIND       PRES   REMARKS
COOPERSTOWN    NOT AVBL
VALLEY CITY    LGT RAIN  57  57 100 CALM      29.80F
OAKES            N/A     55  55 100 N15       29.78S
GWINNER        NOT AVBL
BUFFALO        NOT AVBL
WYNDMERE         N/A     57  57 100 N12         N/A
 ***** THE ABOVE OBSERVATIONS ARE NON NWS ARE NOT QUALITY
       CONTROLLED AND MAY MIS-REPORT RAIN FOR SNOW...
$$

  *****  WEATHER ACROSS NORTHERN MINNESOTA  *****

CITY           SKY/WX    TMP DP  RH WIND       PRES   REMARKS
FLAG ISLAND    CLOUDY    63  46  55 N9        29.78S
WARROAD        CLOUDY    61  52  72 CALM      29.80S
ROSEAU         CLOUDY    57  52  82 CALM      29.79S
HALLOCK        CLOUDY    57  52  82 CALM      29.79S
THF RVR FALLS  CLOUDY    59  52  77 CALM      29.80S
HALSTAD        NOT AVBL
FOSSTON        DRIZZLE   55  52  88 CALM      29.80F
BAUDETTE       CLOUDY    56  51  84 CALM      29.78F
WASKISH        CLOUDY    57  55  94 CALM      29.80S
CROOKSTON      CLOUDY    61  54  77 NW7         N/A
$$
  *****  WEATHER ACROSS CENTRAL AND WEST MINNESOTA  *****

CITY           SKY/WX    TMP DP  RH WIND       PRES   REMARKS
BEMIDJI        LGT RAIN  55  55  97 E5        29.79F
PARK RAPIDS    LGT RAIN  57  54  89 NE10G20   29.74F FOG
WADENA         RAIN      55  55 100 NE13G20   29.70S
DETROIT LAKES  RAIN      55  54  94 NE10      29.77S
MOORHEAD       LGT RAIN  57  55  94 NE13      29.78S
FERGUS FALLS   LGT RAIN  57  57 100 NE14G22   29.72S
ELBOW LAKE     LGT RAIN  56  56  99 NE7       29.70S
MORRIS MN      DRIZZLE   59  57  94 N8        29.68S
STAPLES        RAIN      55  55 100 NE5       29.70F
WHEATON        LGT RAIN  55  54  94 N9        29.72F
$$
  *****  WEATHER ELSEWHERE ACROSS MINNESOTA  *****

CITY           SKY/WX    TMP DP  RH WIND       PRES   REMARKS
DULUTH         LGT RAIN  59  56  89 E21G31    29.72F FOG
INTRNTL FALLS  CLOUDY    57  52  83 CALM      29.79S
ELY            LGT RAIN  55  54  94 CALM      29.80F
CLOQUET        DRIZZLE   57  55  94 E14G21    29.71S
BRAINERD       LGT RAIN  57  56  96 NE8       29.70S FOG
HIBBING        LGT RAIN  58  54  86 E8        29.76F
ALEXANDRIA     CLOUDY    57  57 100 NE8       29.69F
SAINT CLOUD    CLOUDY    57  56  96 E6        29.66S FOG
MINNEAPOLIS    CLOUDY    59  59 100 SE6       29.66R FOG
$$

  *****  WEATHER ACROSS SOUTH DAKOTA  *****

CITY           SKY/WX    TMP DP  RH WIND       PRES   REMARKS
SIOUX FALLS    CLOUDY    59  57  93 W5        29.75R
BROOKINGS      CLOUDY    57  55  94 NW6       29.75R
WATERTOWN      CLOUDY    57  55  93 N9        29.73R
HURON          CLOUDY    57  57 100 CALM      29.76R FOG
SISSETON         N/A     57  57 100 NE15      29.71S
ABERDEEN       CLOUDY    57  55  93 N12       29.76S
MITCHELL       CLOUDY    59  59 100 N7        29.74F FOG
PIERRE         CLOUDY    57  56  96 NE7       29.77S
MOBRIDGE         N/A     57  57 100 NE7       29.79R
RAPID CITY     CLOUDY    53  50  89 N13       29.83S
$$

  *****  SOME WEATHER IN NEARBY STATES *****

CITY           SKY/WX    TMP DP  RH WIND       PRES   REMARKS
GLASGOW MT     SUNNY     54  45  71 CALM      29.89S
GREAT FALLS MT MOSUNNY   44  42  93 SW6       29.93S
CHEYENNE WY    LGT RAIN  44  40  85 NW6       29.90R
SCOTTSBLUFF NE LGT RAIN  50  48  93 W10       29.84R
OMAHA NE       CLOUDY    64  60  87 S13       29.81R
DES MOINES IA  CLOUDY    65  62  90 SW16G22   29.83R
DAVENPORT IA   PTSUNNY   66  62  87 SW13      29.83R
CHICAGO IL     CLOUDY    71  63  75 S18G29    29.83F
EAU CLAIRE WI  FOG       59  58  96 S3        29.68S VSB 3/4
LA CROSSE WI   CLOUDY    66  63  90 S6        29.70R
$$

  *****  SOME NATIONAL WEATHER *****

CITY           SKY/WX    TMP DP  RH WIND       PRES   REMARKS
LA GUARDIA NY  CLOUDY    68  54  60 S6        30.27S
RALEIGH NC     PTSUNNY   71  60  68 SW7       30.36R
ATLANTA GA     CLOUDY    69  62  78 SE7       30.30R
NEW ORLEANS LA CLOUDY    78  72  81 S5        30.06R
OKLAHOMA CITY  CLOUDY    69  67  93 S13       29.87R
ALBUQUERQUE NM MOSUNNY   50  43  77 S6        30.01R
SALT LAKE CITY MOCLDY    52  49  89 SE6       29.94R
LOS ANGELES CA MOCLDY    58  55  90 SW6       29.96R
BOISE ID       MOCLDY    55  46  71 SE9       29.88R
SEATTLE WA     CLOUDY    53  48  83 S6        30.01S
$$

*** WEATHER ACROSS MANITOBA...SASKATCHEWAN AND ONTARIO ***
                ***ONTARIO***

CITY           SKY/WX    TMP DP  RH WIND       PRES   REMARKS
GERALDTON      CLOUDY    54  45  71 VRB2      29.89S
THUNDER BAY    CLOUDY    50  41  71 E7        29.86S
SIOUX LOOKOUT  CLOUDY    59  46  63 N2        29.82F
TORONTO        PTSUNNY   68  52  56 SE9       30.08F
BIG TROUT LK   SUNNY     46  36  66 E7        29.91F
PICKLE LAKE    MOSUNNY   55  39  54 VRB2      29.87S
DRYDEN         PTSUNNY   59  45  58 NE6       29.81F
KENORA         CLOUDY    63  37  39 NE6       29.82S
$$
                *** MANITOBA***

CITY           SKY/WX    TMP DP  RH WIND       PRES   REMARKS
BRANDON        CLOUDY    66  48  52 NW8       29.85S
DAUPHIN        SUNNY     61  45  55 W10       29.82S
ISLAND LAKE    NOT AVBL
PILOT MOUND      N/A     61  50  67 N9          N/A
THE PAS        MOSUNNY   59  48  67 SE5       29.83F
THOMPSON       SUNNY     46  37  71 VRB5      29.86F
WINNIPEG       CLOUDY    59  46  63 N3        29.83S
LYNN LAKE      SUNNY     48  36  61 S6        29.82F
CHURCHILL      MOSUNNY   36  25  64 SW13      29.92F
GILLAM         SUNNY     37  30  75 SE5       29.92F
$$
                ***SASKATCHEWAN***

CITY           SKY/WX    TMP DP  RH WIND       PRES   REMARKS
ESTEVAN        PTSUNNY   54  48  82 VRB2      29.89S
KINDERSLEY     PTSUNNY   54  34  47 SW3       29.89S
LLOYDMINSTER   PTSUNNY   59  39  47 N3        29.89R
PRINCE ALBERT  MOSUNNY   52  48  87 CALM      29.85S
REGINA         MOSUNNY   55  39  54 SW3       29.88S
YORKTON        SUNNY     57  46  67 S3        29.85F



USA.gov is the U.S. government's official web portal to all federal, state and local government web resources and services.